YV182T SVMG-SVMI

Flight info

Callsign YV182T
Flight time 0h 47m
Altitude 28000
Route VALLE CHALO TORTU DOSRA DALSI
Aircraft C550/L-SDFGHRWY/S

Departure

Time 2026-05-09 16:22
Airport Del Caribe Santiago Mariño International Airport (SVMG)

Arrival

Time 2026-05-09 17:09
Airport Maiquetía Simón Bolívar International Airport (SVMI)
Time Latitude Longitude Altitude Speed Heading
2026-05-09 16:11 10.91513 -63.97087 79 ft 0 kts 256°
2026-05-09 16:18 10.91513 -63.97088 79 ft 0 kts 256°
2026-05-09 16:18 10.91497 -63.97100 79 ft 11 kts 187°
2026-05-09 16:18 10.91442 -63.97056 79 ft 10 kts 73°
2026-05-09 16:18 10.91413 -63.97005 79 ft 11 kts 181°
2026-05-09 16:19 10.91352 -63.97092 79 ft 30 kts 257°
2026-05-09 16:19 10.91289 -63.97403 79 ft 52 kts 255°
2026-05-09 16:19 10.91210 -63.97770 79 ft 54 kts 257°
2026-05-09 16:19 10.91144 -63.98093 79 ft 32 kts 251°
2026-05-09 16:20 10.91030 -63.98121 79 ft 10 kts 122°
2026-05-09 16:20 10.91026 -63.98115 79 ft 0 kts 122°
2026-05-09 16:20 10.91026 -63.98114 79 ft 0 kts 122°
2026-05-09 16:21 10.90993 -63.98058 79 ft 22 kts 110°
2026-05-09 16:21 10.91031 -63.97806 79 ft 71 kts 78°
2026-05-09 16:22 10.91177 -63.97095 283 ft 121 kts 78°
2026-05-09 16:22 10.91360 -63.96276 1090 ft 127 kts 77°
2026-05-09 16:22 10.91597 -63.95263 1591 ft 162 kts 76°
2026-05-09 16:22 10.91882 -63.94046 2036 ft 197 kts 76°
2026-05-09 16:23 10.92226 -63.92582 2457 ft 228 kts 76°
2026-05-09 16:23 10.92618 -63.90914 2863 ft 253 kts 76°
2026-05-09 16:23 10.93043 -63.89108 3258 ft 276 kts 76°
2026-05-09 16:23 10.93490 -63.87197 4189 ft 279 kts 76°
2026-05-09 16:24 10.93924 -63.85255 5084 ft 284 kts 76°
2026-05-09 16:24 10.94349 -63.83249 5988 ft 289 kts 76°
2026-05-09 16:24 10.94685 -63.81261 6866 ft 293 kts 87°
2026-05-09 16:24 10.94264 -63.79248 7772 ft 293 kts 118°
2026-05-09 16:25 10.92958 -63.77711 8675 ft 287 kts 149°
2026-05-09 16:25 10.91763 -63.77153 9279 ft 281 kts 169°
2026-05-09 16:25 10.89246 -63.77382 10325 ft 273 kts 209°
2026-05-09 16:25 10.87862 -63.78608 11071 ft 269 kts 239°
2026-05-09 16:26 10.87219 -63.80398 11862 ft 268 kts 260°
2026-05-09 16:26 10.87010 -63.82287 12620 ft 270 kts 266°
2026-05-09 16:26 10.86947 -63.84180 13364 ft 272 kts 269°
2026-05-09 16:26 10.86936 -63.86108 14114 ft 274 kts 270°
2026-05-09 16:27 10.86944 -63.88056 14867 ft 275 kts 270°
2026-05-09 16:27 10.87191 -63.90006 15632 ft 276 kts 283°
2026-05-09 16:27 10.87771 -63.91864 16387 ft 276 kts 288°
2026-05-09 16:27 10.88453 -63.93692 17127 ft 277 kts 289°
2026-05-09 16:28 10.89129 -63.95547 17540 ft 289 kts 287°
2026-05-09 16:28 10.89731 -63.97557 17813 ft 303 kts 284°
2026-05-09 16:28 10.90219 -63.99688 18074 ft 317 kts 281°
2026-05-09 16:28 10.90608 -64.01946 18335 ft 333 kts 278°
2026-05-09 16:29 10.90917 -64.04328 18598 ft 346 kts 276°
2026-05-09 16:29 10.91164 -64.06806 18858 ft 355 kts 275°
2026-05-09 16:29 10.91362 -64.09333 19115 ft 362 kts 274°
2026-05-09 16:29 10.91526 -64.11905 19370 ft 366 kts 273°
2026-05-09 16:30 10.91664 -64.14498 19622 ft 369 kts 272°
2026-05-09 16:30 10.91785 -64.17111 19874 ft 371 kts 272°
2026-05-09 16:30 10.91892 -64.19743 20125 ft 373 kts 272°
2026-05-09 16:30 10.91989 -64.22381 20460 ft 371 kts 272°
2026-05-09 16:31 10.92076 -64.24954 21253 ft 358 kts 272°
2026-05-09 16:31 10.92155 -64.27453 21945 ft 351 kts 271°
2026-05-09 16:31 10.92207 -64.29128 22359 ft 348 kts 271°
2026-05-09 16:31 10.92302 -64.32366 23152 ft 343 kts 271°
2026-05-09 16:32 10.92370 -64.34772 23745 ft 340 kts 271°
2026-05-09 16:32 10.92414 -64.36394 24149 ft 338 kts 271°
2026-05-09 16:32 10.92478 -64.38769 24744 ft 335 kts 271°
2026-05-09 16:32 10.92540 -64.41125 25340 ft 332 kts 271°
2026-05-09 16:33 10.92600 -64.43468 25938 ft 329 kts 271°
2026-05-09 16:33 10.92658 -64.45779 26534 ft 326 kts 271°
2026-05-09 16:33 10.92716 -64.48076 27131 ft 323 kts 271°
2026-05-09 16:33 10.92772 -64.50352 27727 ft 320 kts 271°
2026-05-09 16:34 10.92827 -64.52641 27952 ft 329 kts 271°
2026-05-09 16:34 10.92885 -64.55008 28003 ft 340 kts 271°
2026-05-09 16:34 10.93003 -64.59951 28005 ft 358 kts 271°
2026-05-09 16:35 10.93124 -64.65076 28003 ft 370 kts 271°
2026-05-09 16:35 10.93248 -64.70366 28002 ft 378 kts 271°
2026-05-09 16:36 10.93498 -64.81210 28001 ft 385 kts 271°
2026-05-09 16:37 10.93560 -64.83931 28000 ft 385 kts 271°
2026-05-09 16:37 10.93622 -64.86613 28000 ft 385 kts 271°
2026-05-09 16:37 10.93684 -64.89361 28000 ft 386 kts 271°
2026-05-09 16:37 10.93745 -64.92060 28000 ft 386 kts 271°
2026-05-09 16:38 10.93806 -64.94796 28000 ft 386 kts 271°
2026-05-09 16:38 10.93867 -64.97511 28000 ft 386 kts 271°
2026-05-09 16:38 10.93928 -65.00249 28000 ft 386 kts 271°
2026-05-09 16:38 10.93989 -65.02971 28000 ft 386 kts 271°
2026-05-09 16:39 10.94049 -65.05718 28000 ft 386 kts 271°
2026-05-09 16:39 10.94109 -65.08447 28000 ft 386 kts 271°
2026-05-09 16:39 10.94169 -65.11165 28000 ft 386 kts 271°
2026-05-09 16:39 10.94230 -65.13899 28000 ft 386 kts 271°
2026-05-09 16:40 10.94289 -65.16630 28000 ft 386 kts 271°
2026-05-09 16:40 10.94348 -65.19350 28000 ft 386 kts 271°
2026-05-09 16:42 10.94755 -65.38480 28000 ft 386 kts 271°
2026-05-09 16:42 10.94811 -65.41175 28000 ft 386 kts 271°
2026-05-09 16:42 10.94868 -65.43902 28000 ft 386 kts 271°
2026-05-09 16:42 10.94924 -65.46631 28000 ft 386 kts 271°
2026-05-09 16:43 10.94981 -65.49357 28000 ft 386 kts 271°
2026-05-09 16:43 10.95037 -65.52092 28000 ft 386 kts 271°
2026-05-09 16:43 10.95094 -65.54855 28000 ft 386 kts 271°
2026-05-09 16:43 10.95149 -65.57551 28000 ft 386 kts 271°
2026-05-09 16:44 10.95204 -65.60276 28000 ft 386 kts 271°
2026-05-09 16:44 10.95259 -65.63005 28000 ft 386 kts 271°
2026-05-09 16:44 10.95314 -65.65736 28000 ft 386 kts 271°
2026-05-09 16:44 10.95369 -65.68468 28000 ft 386 kts 271°
2026-05-09 16:45 10.95424 -65.71207 28000 ft 386 kts 271°
2026-05-09 16:45 10.95478 -65.73935 28000 ft 386 kts 271°
2026-05-09 16:45 10.95532 -65.76671 28000 ft 386 kts 271°
2026-05-09 16:45 10.95586 -65.79399 28000 ft 386 kts 271°
2026-05-09 16:46 10.95639 -65.82129 28000 ft 386 kts 271°
2026-05-09 16:46 10.95693 -65.84857 28000 ft 386 kts 271°
2026-05-09 16:46 10.95745 -65.87580 28000 ft 386 kts 271°
2026-05-09 16:46 10.95798 -65.90319 28000 ft 386 kts 271°
2026-05-09 16:47 10.95851 -65.93039 28000 ft 386 kts 271°
2026-05-09 16:47 10.95903 -65.95784 28000 ft 386 kts 271°
2026-05-09 16:47 10.95955 -65.98516 28000 ft 386 kts 271°
2026-05-09 16:47 10.96007 -66.01238 28000 ft 386 kts 271°
2026-05-09 16:48 10.96059 -66.03963 28000 ft 386 kts 271°
2026-05-09 16:48 10.96110 -66.06705 28000 ft 386 kts 271°
2026-05-09 16:48 10.96161 -66.09420 28000 ft 386 kts 271°
2026-05-09 16:48 10.96212 -66.12162 28000 ft 386 kts 271°
2026-05-09 16:49 10.96262 -66.14877 28000 ft 386 kts 271°
2026-05-09 16:49 10.96313 -66.17602 28000 ft 386 kts 271°
2026-05-09 16:49 10.96363 -66.20342 28000 ft 386 kts 271°
2026-05-09 16:50 10.96462 -66.25795 28000 ft 386 kts 271°
2026-05-09 16:50 10.96512 -66.28528 28000 ft 386 kts 271°
2026-05-09 16:50 10.96560 -66.31245 28000 ft 386 kts 271°
2026-05-09 16:50 10.96609 -66.33976 28000 ft 386 kts 271°
2026-05-09 16:51 10.96658 -66.36712 28000 ft 386 kts 271°
2026-05-09 16:51 10.96706 -66.39444 28000 ft 386 kts 271°
2026-05-09 16:51 10.96754 -66.42167 28000 ft 386 kts 271°
2026-05-09 16:51 10.96802 -66.44890 28000 ft 386 kts 271°
2026-05-09 16:52 10.96850 -66.47637 28000 ft 386 kts 271°
2026-05-09 16:52 10.96897 -66.50356 28000 ft 386 kts 271°
2026-05-09 16:52 10.96921 -66.53095 28000 ft 386 kts 268°
2026-05-09 16:53 10.96230 -66.58511 28001 ft 387 kts 259°
2026-05-09 16:53 10.94999 -66.63831 28000 ft 387 kts 256°
2026-05-09 16:53 10.94309 -66.66460 28000 ft 387 kts 256°
2026-05-09 16:54 10.93585 -66.69120 28000 ft 387 kts 255°
2026-05-09 16:54 10.92858 -66.71749 28000 ft 387 kts 255°
2026-05-09 16:54 10.92123 -66.74377 28000 ft 387 kts 255°
2026-05-09 16:54 10.91380 -66.77028 28000 ft 387 kts 255°
2026-05-09 16:55 10.90649 -66.79633 28000 ft 387 kts 255°
2026-05-09 16:55 10.89908 -66.82274 28000 ft 387 kts 255°
2026-05-09 16:55 10.89171 -66.84904 28000 ft 387 kts 255°
2026-05-09 16:55 10.88437 -66.87528 28000 ft 387 kts 255°
2026-05-09 16:56 10.87689 -66.90203 28000 ft 387 kts 255°
2026-05-09 16:56 10.86958 -66.92819 27562 ft 394 kts 255°
2026-05-09 16:56 10.86204 -66.95520 26827 ft 400 kts 255°
2026-05-09 16:56 10.85447 -66.98232 26083 ft 393 kts 255°
2026-05-09 16:57 10.84710 -67.00873 25334 ft 386 kts 255°
2026-05-09 16:57 10.83979 -67.03488 24582 ft 382 kts 255°
2026-05-09 16:57 10.83258 -67.06071 23830 ft 379 kts 255°
2026-05-09 16:57 10.82553 -67.08593 22929 ft 362 kts 255°
2026-05-09 16:58 10.81878 -67.11005 21940 ft 348 kts 255°
2026-05-09 16:58 10.81226 -67.13336 20944 ft 340 kts 255°
2026-05-09 16:58 10.80582 -67.15643 19939 ft 335 kts 255°
2026-05-09 16:58 10.79948 -67.17915 18938 ft 332 kts 255°
2026-05-09 16:59 10.79322 -67.20159 17941 ft 329 kts 255°
2026-05-09 16:59 10.78695 -67.22382 16942 ft 326 kts 254°
2026-05-09 16:59 10.77633 -67.24386 15943 ft 326 kts 232°
2026-05-09 16:59 10.75799 -67.25738 14945 ft 328 kts 207°
2026-05-09 17:00 10.73691 -67.26309 13969 ft 297 kts 193°
2026-05-09 17:00 10.71730 -67.26490 12984 ft 273 kts 187°
2026-05-09 17:00 10.69908 -67.26654 11988 ft 253 kts 192°
2026-05-09 17:00 10.68226 -67.26913 10997 ft 240 kts 194°
2026-05-09 17:01 10.66592 -67.27163 9992 ft 234 kts 190°
2026-05-09 17:01 10.64980 -67.27176 8998 ft 230 kts 183°
2026-05-09 17:01 10.63416 -67.27072 8012 ft 227 kts 178°
2026-05-09 17:01 10.61939 -67.26447 6999 ft 234 kts 144°
2026-05-09 17:02 10.60971 -67.25158 6048 ft 235 kts 113°
2026-05-09 17:02 10.60392 -67.23615 5087 ft 228 kts 109°
2026-05-09 17:02 10.59898 -67.22205 4734 ft 194 kts 106°
2026-05-09 17:02 10.59592 -67.20978 4321 ft 155 kts 100°
2026-05-09 17:03 10.59497 -67.20025 4004 ft 122 kts 92°
2026-05-09 17:04 10.59841 -67.14653 2800 ft 115 kts 91°
2026-05-09 17:05 10.59820 -67.13845 2370 ft 111 kts 92°
2026-05-09 17:05 10.59788 -67.13068 1952 ft 109 kts 92°
2026-05-09 17:05 10.59751 -67.12296 1510 ft 110 kts 93°
2026-05-09 17:05 10.59711 -67.11532 1080 ft 109 kts 93°
2026-05-09 17:06 10.59727 -67.10744 1071 ft 118 kts 87°
2026-05-09 17:06 10.59767 -67.09879 1490 ft 120 kts 88°
2026-05-09 17:06 10.59751 -67.09075 2081 ft 109 kts 95°
2026-05-09 17:06 10.59813 -67.08256 2032 ft 127 kts 76°
2026-05-09 17:07 10.59999 -67.07325 1809 ft 133 kts 80°
2026-05-09 17:07 10.60099 -67.06717 1503 ft 127 kts 81°
2026-05-09 17:07 10.60223 -67.05568 926 ft 121 kts 90°
2026-05-09 17:07 10.60209 -67.04695 913 ft 116 kts 91°
2026-05-09 17:08 10.60228 -67.03927 746 ft 113 kts 86°
2026-05-09 17:08 10.60330 -67.02263 526 ft 112 kts 89°
2026-05-09 17:08 10.60352 -67.01511 357 ft 100 kts 88°
2026-05-09 17:09 10.60393 -67.00851 239 ft 76 kts 89°
2026-05-09 17:09 10.60396 -67.00592 239 ft 22 kts 88°
2026-05-09 17:09 10.60393 -67.00393 239 ft 27 kts 92°
2026-05-09 17:09 10.60310 -67.00308 239 ft 15 kts 187°
2026-05-09 17:10 10.60245 -67.00259 239 ft 14 kts 104°
2026-05-09 17:10 10.60229 -67.00199 239 ft 17 kts 104°
2026-05-09 17:10 10.60250 -67.00074 239 ft 19 kts 85°
2026-05-09 17:10 10.60252 -66.99955 239 ft 9 kts 91°
2026-05-09 17:11 10.60221 -66.99910 239 ft 10 kts 152°
2026-05-09 17:11 10.60152 -66.99879 239 ft 15 kts 134°
2026-05-09 17:11 10.60140 -66.99757 239 ft 19 kts 93°
2026-05-09 17:11 10.60111 -66.99647 239 ft 16 kts 170°
2026-05-09 17:12 10.59993 -66.99644 239 ft 18 kts 178°
2026-05-09 17:12 10.59864 -66.99693 239 ft 23 kts 166°
2026-05-09 17:12 10.59815 -66.99586 239 ft 21 kts 101°
2026-05-09 17:12 10.59804 -66.99462 239 ft 14 kts 81°
2026-05-09 17:13 10.59777 -66.99445 239 ft 9 kts 207°
2026-05-09 17:13 10.59725 -66.99434 239 ft 2 kts 163°
2026-05-09 17:13 10.59721 -66.99433 239 ft 0 kts 169°
2026-05-09 17:13 10.59720 -66.99433 239 ft 0 kts 169°